DLH99E EDDF-LPPD

Flight info

Callsign DLH99E
Flight time N/A
Altitude 33000
Route SOBRA7D SOBRA Y180 DIK UN857 TOLVU DCT RAPOR DCT ESTOC DCT PON DCT DITAL DCT GODIX DCT DIDAK DCT KURIS DCT TERPO UN461 AKEMO DCT RIVAK/M078F350 UN460 SIVIR DCT PASAS DCT 42N020W/M078F360 DCT BAVAS DCT OMOBI
Aircraft A321/M-SDE2E3FGIJ1LORWXYZ/HB1

Departure

Time 2026-04-17 08:12
Airport Frankfurt Main Airport (EDDF)

Arrival

Time N/A
Airport João Paulo II Airport (LPPD)
Time Latitude Longitude Altitude Speed Heading
2026-04-17 07:44 50.03698 8.54139 348 ft 0 kts 160°
2026-04-17 08:07 50.03696 8.54140 343 ft 2 kts 160°
2026-04-17 08:07 50.03665 8.54158 345 ft 8 kts 160°
2026-04-17 08:07 50.03616 8.54128 347 ft 10 kts 232°
2026-04-17 08:08 50.03583 8.54005 338 ft 15 kts 249°
2026-04-17 08:08 50.03547 8.53853 336 ft 15 kts 250°
2026-04-17 08:08 50.03509 8.53690 336 ft 16 kts 249°
2026-04-17 08:08 50.03468 8.53520 336 ft 17 kts 250°
2026-04-17 08:09 50.03427 8.53343 336 ft 18 kts 249°
2026-04-17 08:09 50.03381 8.53158 336 ft 19 kts 249°
2026-04-17 08:09 50.03334 8.52964 335 ft 20 kts 249°
2026-04-17 08:09 50.03296 8.52804 333 ft 11 kts 250°
2026-04-17 08:10 50.03283 8.52749 331 ft 0 kts 250°
2026-04-17 08:10 50.03281 8.52742 332 ft 3 kts 250°
2026-04-17 08:10 50.03270 8.52696 333 ft 5 kts 250°
2026-04-17 08:10 50.03264 8.52652 335 ft 6 kts 260°
2026-04-17 08:11 50.03237 8.52597 334 ft 7 kts 201°
2026-04-17 08:11 50.03197 8.52595 334 ft 0 kts 179°
2026-04-17 08:11 50.03186 8.52595 334 ft 12 kts 179°
2026-04-17 08:11 50.02878 8.52599 334 ft 74 kts 180°
2026-04-17 08:12 50.02193 8.52606 332 ft 121 kts 179°
2026-04-17 08:12 50.01218 8.52615 332 ft 157 kts 179°
2026-04-17 08:12 50.00025 8.52625 580 ft 173 kts 179°
2026-04-17 08:12 49.98934 8.52603 1745 ft 145 kts 180°
2026-04-17 08:13 49.97925 8.52594 2347 ft 155 kts 179°
2026-04-17 08:13 49.96800 8.52641 2770 ft 158 kts 178°
2026-04-17 08:13 49.95806 8.52711 2918 ft 142 kts 176°
2026-04-17 08:14 49.93698 8.52928 3573 ft 163 kts 176°
2026-04-17 08:14 49.92505 8.53044 3729 ft 182 kts 176°
2026-04-17 08:14 49.91167 8.53163 3930 ft 203 kts 177°